| time (UTC) | temp F | wind direction | speed knots | gust knots | rain 1hr in | rain 24hr in | rain mn in | humidity % | barometer mb |
| 20260510225510 | 62 | 352 | 0.0 | 0.9 | 0.00 | 0.12 | 0.12 | 86 | 1014.0 |
| 20260510225004 | 62 | 352 | 0.0 | 0.9 | 0.00 | 0.12 | 0.12 | 85 | 1013.9 |
| 20260510224526 | 62 | 352 | 0.0 | 1.7 | 0.00 | 0.12 | 0.12 | 85 | 1013.9 |
| 20260510224007 | 62 | 352 | 0.0 | 1.7 | 0.01 | 0.12 | 0.12 | 84 | 1013.7 |
| 20260510223509 | 63 | 352 | 0.0 | 1.7 | 0.12 | 0.12 | 0.12 | 85 | 1013.7 |
| 20260510223016 | 63 | 352 | 0.0 | 1.7 | 0.12 | 0.12 | 0.12 | 84 | 1013.6 |
| 20260510222511 | 63 | 15 | 0.0 | 1.7 | 0.12 | 0.12 | 0.12 | 87 | 1013.7 |
| 20260510222008 | 64 | 40 | 0.0 | 1.7 | 0.12 | 0.12 | 0.12 | 87 | 1013.7 |
| 20260510221520 | 64 | 53 | 0.0 | 1.7 | 0.12 | 0.12 | 0.12 | 86 | 1013.8 |
| 20260510221014 | 64 | 53 | 0.0 | 1.7 | 0.12 | 0.12 | 0.12 | 85 | 1013.7 |
| 20260510220515 | 64 | 53 | 0.0 | 1.7 | 0.12 | 0.12 | 0.12 | 85 | 1013.6 |
| 20260510220024 | 64 | 53 | 0.0 | 1.7 | 0.12 | 0.12 | 0.12 | 83 | 1013.6 |
| 20260510215508 | 65 | 53 | 0.0 | 1.7 | 0.12 | 0.12 | 0.12 | 79 | 1013.7 |
| 20260510215011 | 66 | 109 | 0.0 | 1.7 | 0.12 | 0.12 | 0.12 | 78 | 1013.9 |
| 20260510214525 | 67 | 86 | 0.0 | 3.5 | 0.12 | 0.12 | 0.12 | 75 | 1013.7 |
| 20260510214007 | 68 | 32 | 0.0 | 3.5 | 0.11 | 0.11 | 0.11 | 70 | 1013.8 |
| 20260510213509 | 70 | 157 | 0.9 | 1.7 | 0.00 | 0.00 | 0.00 | 62 | 1014.1 |
| 20260510213015 | 71 | 225 | 0.0 | 1.7 | 0.00 | 0.00 | 0.00 | 58 | 1013.4 |
| 20260510212507 | 71 | 15 | 0.9 | 4.3 | 0.00 | 0.00 | 0.00 | 57 | 1013.2 |
| 20260510212009 | 72 | 288 | 0.0 | 4.3 | 0.00 | 0.00 | 0.00 | 57 | 1013.2 |
| 20260510211519 | 72 | 12 | 0.9 | 4.3 | 0.00 | 0.00 | 0.00 | 58 | 1013.1 |
| 20260510211008 | 72 | 328 | 0.0 | 1.7 | 0.00 | 0.00 | 0.00 | 56 | 1013.0 |
| 20260510210512 | 73 | 9 | 0.0 | 1.7 | 0.00 | 0.00 | 0.00 | 57 | 1012.9 |
| 20260510210022 | 73 | 304 | 0.0 | 3.5 | 0.00 | 0.00 | 0.00 | 56 | 1012.9 |
| 20260510205503 | 73 | 319 | 0.0 | 3.5 | 0.00 | 0.01 | 0.00 | 57 | 1012.8 |
| 20260510205004 | 73 | 9 | 0.0 | 1.7 | 0.00 | 0.05 | 0.00 | 57 | 1012.7 |
| 20260510204509 | 74 | 309 | 0.9 | 1.7 | 0.00 | 0.05 | 0.00 | 56 | 1012.7 |
| 20260510204006 | 74 | 301 | 0.0 | 2.6 | 0.00 | 0.05 | 0.00 | 56 | 1012.7 |
| 20260510203506 | 74 | 17 | 0.9 | 2.6 | 0.00 | 0.05 | 0.00 | 56 | 1012.8 |
| 20260510203012 | 75 | 327 | 0.9 | 2.6 | 0.00 | 0.05 | 0.00 | 56 | 1012.7 |
| 20260510202507 | 75 | 335 | 0.9 | 2.6 | 0.00 | 0.05 | 0.00 | 54 | 1012.5 |
| 20260510202007 | 76 | 252 | 0.9 | 2.6 | 0.00 | 0.05 | 0.00 | 54 | 1012.5 |
| 20260510201517 | 76 | 329 | 0.9 | 2.6 | 0.00 | 0.05 | 0.00 | 53 | 1012.6 |
| 20260510201010 | 77 | 27 | 0.9 | 2.6 | 0.00 | 0.05 | 0.00 | 56 | 1012.5 |
| 20260510200508 | 76 | 290 | 0.9 | 2.6 | 0.00 | 0.05 | 0.00 | 54 | 1012.6 |
| 20260510200024 | 76 | 319 | 0.9 | 2.6 | 0.00 | 0.05 | 0.00 | 56 | 1012.5 |
| 20260510195510 | 76 | 342 | 0.9 | 2.6 | 0.00 | 0.05 | 0.00 | 55 | 1012.7 |
| 20260510195007 | 76 | 346 | 0.9 | 2.6 | 0.00 | 0.05 | 0.00 | 53 | 1012.7 |
| 20260510194505 | 77 | 347 | 0.0 | 1.7 | 0.00 | 0.05 | 0.00 | 52 | 1012.7 |
| 20260510194004 | 77 | 9 | 0.9 | 2.6 | 0.00 | 0.05 | 0.00 | 51 | 1012.7 |
| 20260510193504 | 78 | 327 | 0.0 | 2.6 | 0.00 | 0.05 | 0.00 | 50 | 1012.7 |
| 20260510193010 | 79 | 9 | 0.9 | 4.3 | 0.00 | 0.05 | 0.00 | 49 | 1012.7 |
| 20260510192508 | 80 | 279 | 1.7 | 4.3 | 0.00 | 0.05 | 0.00 | 47 | 1012.8 |
| 20260510192004 | 80 | 246 | 0.9 | 2.6 | 0.00 | 0.05 | 0.00 | 48 | 1012.7 |
| 20260510191521 | 79 | 352 | 0.9 | 2.6 | 0.00 | 0.05 | 0.00 | 49 | 1012.8 |
| 20260510191008 | 79 | 345 | 0.9 | 2.6 | 0.00 | 0.05 | 0.00 | 47 | 1012.7 |
| 20260510190508 | 79 | 19 | 0.9 | 2.6 | 0.00 | 0.05 | 0.00 | 47 | 1012.6 |
| 20260510190028 | 79 | 352 | 0.0 | 3.5 | 0.00 | 0.05 | 0.00 | 49 | 1012.8 |
| 20260510185509 | 78 | 9 | 0.9 | 6.1 | 0.00 | 0.05 | 0.00 | 49 | 1012.8 |
| 20260510185009 | 78 | 259 | 1.7 | 6.1 | 0.00 | 0.05 | 0.00 | 45 | 1012.8 |
| 20260510184526 | 79 | 275 | 1.7 | 5.2 | 0.00 | 0.05 | 0.00 | 46 | 1012.9 |
| 20260510184011 | 79 | 231 | 1.7 | 5.2 | 0.00 | 0.05 | 0.00 | 46 | 1012.9 |
| 20260510183507 | 79 | 295 | 0.9 | 4.3 | 0.00 | 0.05 | 0.00 | 47 | 1012.8 |
| 20260510183025 | 79 | 323 | 0.9 | 4.3 | 0.00 | 0.05 | 0.00 | 43 | 1012.7 |
| 20260510182504 | 80 | 279 | 0.9 | 3.5 | 0.00 | 0.05 | 0.00 | 50 | 1012.8 |
| 20260510182008 | 79 | 18 | 0.9 | 7.8 | 0.00 | 0.05 | 0.00 | 48 | 1012.8 |
| 20260510181516 | 79 | 276 | 1.7 | 7.8 | 0.00 | 0.05 | 0.00 | 51 | 1012.8 |
| 20260510181008 | 78 | 295 | 2.6 | 7.8 | 0.00 | 0.05 | 0.00 | 50 | 1012.9 |
| 20260510180511 | 77 | 302 | 1.7 | 3.5 | 0.00 | 0.05 | 0.00 | 54 | 1012.9 |
| 20260510180018 | 77 | 136 | 0.9 | 3.5 | 0.00 | 0.05 | 0.00 | 51 | 1012.8 |
| 20260510175512 | 77 | 185 | 0.9 | 3.5 | 0.00 | 0.05 | 0.00 | 51 | 1012.9 |
| 20260510175009 | 77 | 310 | 1.7 | 3.5 | 0.00 | 0.05 | 0.00 | 50 | 1013.0 |
| 20260510174521 | 77 | 344 | 0.9 | 3.5 | 0.00 | 0.05 | 0.00 | 52 | 1012.8 |
| 20260510174009 | 77 | 166 | 0.9 | 3.5 | 0.00 | 0.05 | 0.00 | 54 | 1012.9 |
| 20260510173508 | 77 | 234 | 0.9 | 6.1 | 0.00 | 0.05 | 0.00 | 54 | 1012.9 |
| 20260510173026 | 77 | 296 | 1.7 | 6.1 | 0.00 | 0.05 | 0.00 | 55 | 1012.9 |
| 20260510172506 | 76 | 261 | 0.0 | 2.6 | 0.00 | 0.05 | 0.00 | 54 | 1012.9 |
| 20260510172006 | 76 | 294 | 0.9 | 3.5 | 0.00 | 0.05 | 0.00 | 55 | 1013.0 |
| 20260510171511 | 76 | 73 | 0.9 | 3.5 | 0.00 | 0.05 | 0.00 | 52 | 1013.0 |
| 20260510171007 | 76 | 213 | 0.9 | 1.7 | 0.00 | 0.05 | 0.00 | 53 | 1013.0 |
| 20260510170510 | 76 | 313 | 0.9 | 7.0 | 0.00 | 0.05 | 0.00 | 54 | 1013.0 |
| 20260510170021 | 76 | 254 | 0.9 | 7.0 | 0.00 | 0.05 | 0.00 | 53 | 1013.0 |
| 20260510165509 | 76 | 163 | 0.9 | 3.5 | 0.00 | 0.05 | 0.00 | 59 | 1012.9 |
| 20260510165009 | 75 | 18 | 0.9 | 3.5 | 0.00 | 0.05 | 0.00 | 55 | 1013.0 |
| 20260510164542 | 75 | 277 | 0.9 | 4.3 | 0.00 | 0.05 | 0.00 | 56 | 1013.1 |
| 20260510164009 | 75 | 278 | 0.9 | 4.3 | 0.00 | 0.05 | 0.00 | 52 | 1013.1 |
| 20260510163510 | 75 | 313 | 1.7 | 3.5 | 0.00 | 0.05 | 0.00 | 58 | 1013.1 |
| 20260510163027 | 75 | 178 | 0.0 | 3.5 | 0.00 | 0.05 | 0.00 | 57 | 1013.1 |
| 20260510162511 | 74 | 300 | 0.9 | 6.1 | 0.00 | 0.05 | 0.00 | 59 | 1013.2 |
| 20260510162013 | 74 | 340 | 0.9 | 6.1 | 0.00 | 0.05 | 0.00 | 61 | 1013.3 |
| 20260510161513 | 73 | 277 | 1.7 | 6.1 | 0.00 | 0.05 | 0.00 | 60 | 1013.2 |
| 20260510161007 | 73 | 227 | 0.9 | 5.2 | 0.00 | 0.05 | 0.00 | 62 | 1013.2 |
| 20260510160507 | 72 | 245 | 0.9 | 5.2 | 0.00 | 0.05 | 0.00 | 62 | 1013.2 |
| 20260510160019 | 72 | 304 | 0.9 | 3.5 | 0.00 | 0.05 | 0.00 | 63 | 1013.2 |
| 20260510155510 | 72 | 213 | 0.9 | 6.1 | 0.00 | 0.05 | 0.00 | 62 | 1013.2 |
| 20260510155007 | 71 | 153 | 1.7 | 6.1 | 0.00 | 0.05 | 0.00 | 62 | 1013.3 |
| 20260510154522 | 71 | 278 | 0.9 | 6.1 | 0.00 | 0.05 | 0.00 | 62 | 1013.4 |
| 20260510154010 | 71 | 252 | 1.7 | 6.1 | 0.00 | 0.05 | 0.00 | 62 | 1013.4 |
| 20260510153508 | 71 | 219 | 1.7 | 4.3 | 0.00 | 0.05 | 0.00 | 65 | 1013.4 |
| 20260510153030 | 71 | 232 | 0.9 | 3.5 | 0.00 | 0.05 | 0.00 | 66 | 1013.3 |
| 20260510152515 | 70 | 263 | 0.9 | 3.5 | 0.00 | 0.05 | 0.00 | 65 | 1013.5 |
| 20260510152010 | 70 | 234 | 0.9 | 5.2 | 0.00 | 0.05 | 0.00 | 65 | 1013.4 |
| 20260510151524 | 70 | 215 | 1.7 | 5.2 | 0.00 | 0.05 | 0.00 | 65 | 1013.3 |
| 20260510151011 | 70 | 277 | 0.9 | 1.7 | 0.00 | 0.05 | 0.00 | 71 | 1013.4 |
| 20260510150505 | 69 | 288 | 0.9 | 1.7 | 0.00 | 0.05 | 0.00 | 68 | 1013.4 |
| 20260510150014 | 69 | 242 | 0.0 | 2.6 | 0.00 | 0.05 | 0.00 | 73 | 1013.4 |
| 20260510145507 | 68 | 240 | 0.9 | 2.6 | 0.00 | 0.05 | 0.00 | 69 | 1013.5 |
| 20260510145007 | 68 | 231 | 0.9 | 3.5 | 0.00 | 0.05 | 0.00 | 76 | 1013.6 |
| 20260510144522 | 67 | 170 | 0.9 | 3.5 | 0.00 | 0.05 | 0.00 | 74 | 1013.5 |
| 20260510144010 | 67 | 296 | 0.0 | 3.5 | 0.00 | 0.05 | 0.00 | 76 | 1013.6 |
| 20260510143508 | 66 | 218 | 0.0 | 3.5 | 0.00 | 0.05 | 0.00 | 77 | 1013.5 |
| 20260510143025 | 65 | 287 | 0.0 | 3.5 | 0.00 | 0.05 | 0.00 | 78 | 1013.4 |
| 20260510142510 | 65 | 235 | 0.0 | 3.5 | 0.00 | 0.05 | 0.00 | 76 | 1013.4 |
| 20260510142015 | 65 | 213 | 0.9 | 3.5 | 0.00 | 0.05 | 0.00 | 75 | 1013.3 |
| 20260510141528 | 64 | 167 | 0.9 | 3.5 | 0.00 | 0.05 | 0.00 | 78 | 1013.4 |
| 20260510141013 | 64 | 232 | 0.0 | 4.3 | 0.00 | 0.05 | 0.00 | 81 | 1013.5 |
| 20260510140511 | 63 | 115 | 0.9 | 4.3 | 0.00 | 0.05 | 0.00 | 82 | 1013.5 |
| 20260510140029 | 63 | 169 | 0.9 | 1.7 | 0.00 | 0.05 | 0.00 | 83 | 1013.5 |
| 20260510135505 | 62 | 241 | 0.9 | 1.7 | 0.00 | 0.05 | 0.00 | 82 | 1013.3 |
| 20260510135004 | 62 | 213 | 0.9 | 1.7 | 0.00 | 0.05 | 0.00 | 84 | 1013.3 |
| 20260510134516 | 61 | 310 | 0.0 | 1.7 | 0.00 | 0.05 | 0.00 | 87 | 1013.4 |
| 20260510134007 | 60 | 204 | 0.9 | 1.7 | 0.00 | 0.05 | 0.00 | 85 | 1013.3 |
| 20260510133507 | 60 | 267 | 0.9 | 1.7 | 0.00 | 0.05 | 0.00 | 88 | 1013.4 |
| 20260510133019 | 60 | 234 | 0.9 | 1.7 | 0.00 | 0.05 | 0.00 | 90 | 1013.2 |
| 20260510132512 | 59 | 236 | 0.9 | 1.7 | 0.00 | 0.05 | 0.00 | 94 | 1013.3 |
| 20260510132010 | 58 | 123 | 0.0 | 1.7 | 0.00 | 0.05 | 0.00 | 94 | 1013.3 |
| 20260510131525 | 57 | 270 | 0.0 | 1.7 | 0.00 | 0.05 | 0.00 | 94 | 1013.3 |
| 20260510131009 | 56 | 189 | 0.0 | 1.7 | 0.00 | 0.05 | 0.00 | 95 | 1013.3 |
| 20260510130509 | 55 | 247 | 0.0 | 1.7 | 0.00 | 0.05 | 0.00 | 96 | 1013.5 |
| 20260510130030 | 55 | 225 | 0.0 | 1.7 | 0.00 | 0.05 | 0.00 | 96 | 1013.5 |
| 20260510125509 | 55 | 219 | 0.0 | 1.7 | 0.00 | 0.05 | 0.00 | 96 | 1013.5 |
| 20260510125012 | 55 | 283 | 0.0 | 1.7 | 0.00 | 0.05 | 0.00 | 96 | 1013.6 |
| 20260510124515 | 54 | 246 | 0.0 | 1.7 | 0.00 | 0.05 | 0.00 | 96 | 1013.5 |
| 20260510124011 | 54 | 270 | 0.0 | 1.7 | 0.00 | 0.05 | 0.00 | 96 | 1013.4 |
| 20260510123510 | 53 | 112 | 0.0 | 1.7 | 0.00 | 0.05 | 0.00 | 96 | 1013.4 |
| 20260510123018 | 53 | 132 | 0.0 | 1.7 | 0.00 | 0.05 | 0.00 | 96 | 1013.2 |
| 20260510122508 | 53 | 109 | 0.0 | 1.7 | 0.00 | 0.05 | 0.00 | 96 | 1013.1 |
| 20260510122010 | 53 | 36 | 0.0 | 1.7 | 0.00 | 0.05 | 0.00 | 96 | 1012.9 |
| 20260510121521 | 53 | 84 | 0.0 | 1.7 | 0.00 | 0.05 | 0.00 | 96 | 1013.0 |
| 20260510121012 | 53 | 123 | 0.0 | 1.7 | 0.00 | 0.05 | 0.00 | 96 | 1012.9 |
| 20260510120511 | 52 | 119 | 0.9 | 2.6 | 0.00 | 0.05 | 0.00 | 96 | 1012.8 |
| 20260510120007 | 52 | 175 | 0.9 | 2.6 | 0.00 | 0.05 | 0.00 | 96 | 1012.7 |
| 20260510115507 | 52 | 102 | 0.0 | 1.7 | 0.00 | 0.05 | 0.00 | 96 | 1012.8 |
| 20260510115003 | 52 | 121 | 0.0 | 1.7 | 0.00 | 0.05 | 0.00 | 96 | 1012.8 |
| 20260510114513 | 52 | 51 | 0.0 | 1.7 | 0.00 | 0.05 | 0.00 | 96 | 1012.7 |
| 20260510114006 | 52 | 11 | 0.0 | 1.7 | 0.00 | 0.05 | 0.00 | 96 | 1012.9 |
| 20260510113507 | 52 | 27 | 0.0 | 1.7 | 0.00 | 0.05 | 0.00 | 96 | 1012.7 |
| 20260510113020 | 52 | 130 | 0.0 | 1.7 | 0.00 | 0.05 | 0.00 | 96 | 1012.5 |
| 20260510112512 | 51 | 68 | 0.0 | 1.7 | 0.00 | 0.05 | 0.00 | 96 | 1012.5 |
| 20260510112007 | 51 | 60 | 0.9 | 1.7 | 0.00 | 0.05 | 0.00 | 96 | 1012.5 |
| 20260510111531 | 51 | 5 | 0.0 | 1.7 | 0.00 | 0.05 | 0.00 | 96 | 1012.7 |
| 20260510111011 | 51 | 360 | 0.0 | 1.7 | 0.00 | 0.05 | 0.00 | 96 | 1012.7 |
| 20260510110515 | 51 | 360 | 0.0 | 1.7 | 0.00 | 0.05 | 0.00 | 96 | 1012.5 |
| 20260510110025 | 51 | 5 | 0.0 | 1.7 | 0.00 | 0.05 | 0.00 | 96 | 1012.6 |
| 20260510105510 | 51 | 9 | 0.0 | 1.7 | 0.00 | 0.05 | 0.00 | 96 | 1012.5 |
| 20260510105007 | 51 | 9 | 0.0 | 1.7 | 0.00 | 0.05 | 0.00 | 96 | 1012.2 |
| 20260510104513 | 51 | 107 | 0.0 | 1.7 | 0.00 | 0.05 | 0.00 | 96 | 1012.1 |
| 20260510104006 | 50 | 22 | 0.0 | 1.7 | 0.00 | 0.05 | 0.00 | 96 | 1011.9 |
| 20260510103504 | 50 | 55 | 0.0 | 1.7 | 0.00 | 0.05 | 0.00 | 96 | 1012.0 |
| 20260510103013 | 50 | 43 | 0.0 | 1.7 | 0.00 | 0.05 | 0.00 | 96 | 1012.0 |
| 20260510102508 | 50 | 111 | 0.0 | 1.7 | 0.00 | 0.05 | 0.00 | 96 | 1012.0 |
| 20260510102008 | 50 | 111 | 0.0 | 1.7 | 0.00 | 0.05 | 0.00 | 96 | 1012.0 |
| 20260510101520 | 50 | 111 | 0.0 | 1.7 | 0.00 | 0.05 | 0.00 | 96 | 1011.9 |
| 20260510101013 | 50 | 352 | 0.0 | 1.7 | 0.00 | 0.05 | 0.00 | 96 | 1012.0 |
| 20260510100516 | 50 | 352 | 0.0 | 1.7 | 0.00 | 0.05 | 0.00 | 96 | 1011.9 |
| 20260510100022 | 50 | 352 | 0.0 | 0.9 | 0.00 | 0.05 | 0.00 | 96 | 1011.9 |
| 20260510095508 | 50 | 352 | 0.0 | 1.7 | 0.00 | 0.05 | 0.00 | 96 | 1011.7 |
| 20260510095011 | 50 | 77 | 0.0 | 1.7 | 0.00 | 0.05 | 0.00 | 96 | 1011.6 |
| 20260510094529 | 50 | 25 | 0.0 | 1.7 | 0.00 | 0.05 | 0.00 | 96 | 1011.6 |
| 20260510094004 | 50 | 26 | 0.0 | 1.7 | 0.00 | 0.05 | 0.00 | 96 | 1011.7 |
| 20260510093509 | 50 | 79 | 0.0 | 1.7 | 0.00 | 0.05 | 0.00 | 96 | 1011.7 |
| 20260510093011 | 50 | 100 | 0.0 | 1.7 | 0.00 | 0.05 | 0.00 | 96 | 1011.7 |
| 20260510092509 | 50 | 100 | 0.0 | 1.7 | 0.00 | 0.05 | 0.00 | 96 | 1011.7 |
| 20260510092012 | 50 | 100 | 0.0 | 1.7 | 0.00 | 0.05 | 0.00 | 96 | 1011.6 |
| 20260510091540 | 50 | 100 | 0.0 | 1.7 | 0.00 | 0.05 | 0.00 | 96 | 1011.7 |
| 20260510091010 | 49 | 100 | 0.0 | 1.7 | 0.00 | 0.05 | 0.00 | 96 | 1011.8 |
| 20260510090509 | 49 | 100 | 0.0 | 1.7 | 0.00 | 0.05 | 0.00 | 96 | 1011.7 |
| 20260510090022 | 49 | 100 | 0.0 | 1.7 | 0.00 | 0.05 | 0.00 | 96 | 1011.8 |
| 20260510085510 | 49 | 111 | 0.0 | 1.7 | 0.00 | 0.05 | 0.00 | 96 | 1011.8 |
| 20260510085009 | 49 | 299 | 0.9 | 2.6 | 0.00 | 0.05 | 0.00 | 96 | 1012.1 |
| 20260510084526 | 49 | 93 | 1.7 | 2.6 | 0.00 | 0.05 | 0.00 | 96 | 1011.4 |
| 20260510084009 | 49 | 300 | 0.9 | 1.7 | 0.00 | 0.05 | 0.00 | 95 | 1012.0 |
| 20260510083518 | 49 | 312 | 0.9 | 1.7 | 0.00 | 0.05 | 0.00 | 95 | 1012.0 |
| 20260510083026 | 49 | 145 | 0.0 | 1.7 | 0.00 | 0.05 | 0.00 | 95 | 1011.6 |
| 20260510082504 | 49 | 64 | 0.0 | 1.7 | 0.00 | 0.05 | 0.00 | 95 | 1011.1 |
| 20260510082005 | 49 | 64 | 0.0 | 1.7 | 0.00 | 0.05 | 0.00 | 95 | 1011.2 |
| 20260510081531 | 49 | 64 | 0.0 | 1.7 | 0.00 | 0.05 | 0.00 | 95 | 1011.1 |
| 20260510081005 | 49 | 64 | 0.0 | 1.7 | 0.00 | 0.05 | 0.00 | 95 | 1011.2 |
| 20260510080508 | 49 | 64 | 0.0 | 0.0 | 0.00 | 0.05 | 0.00 | 95 | 1011.2 |
| 20260510080021 | 49 | 64 | 0.0 | 1.7 | 0.00 | 0.05 | 0.00 | 95 | 1011.1 |
| 20260510075512 | 49 | 64 | 0.0 | 1.7 | 0.00 | 0.05 | 0.00 | 95 | 1010.9 |
| 20260510075007 | 49 | 65 | 0.0 | 1.7 | 0.00 | 0.05 | 0.00 | 95 | 1010.9 |
| 20260510074529 | 49 | 50 | 0.0 | 1.7 | 0.00 | 0.05 | 0.00 | 95 | 1011.0 |
| 20260510074016 | 48 | 50 | 0.0 | 1.7 | 0.00 | 0.05 | 0.00 | 95 | 1011.1 |
| 20260510073522 | 48 | 50 | 0.0 | 1.7 | 0.00 | 0.05 | 0.00 | 95 | 1011.1 |
| 20260510073035 | 48 | 50 | 0.0 | 1.7 | 0.00 | 0.05 | 0.00 | 95 | 1011.0 |
| 20260510072511 | 48 | 15 | 0.0 | 1.7 | 0.00 | 0.05 | 0.00 | 95 | 1011.0 |
| 20260510072010 | 48 | 13 | 0.0 | 1.7 | 0.00 | 0.05 | 0.00 | 95 | 1011.0 |
| 20260510071515 | 48 | 13 | 0.0 | 1.7 | 0.00 | 0.05 | 0.00 | 95 | 1011.0 |
| 20260510071008 | 48 | 13 | 0.0 | 1.7 | 0.00 | 0.05 | 0.00 | 95 | 1011.0 |
| 20260510070506 | 48 | 13 | 0.0 | 1.7 | 0.00 | 0.05 | 0.00 | 95 | 1010.8 |
| 20260510070023 | 48 | 11 | 0.0 | 1.7 | 0.00 | 0.05 | 0.00 | 95 | 1010.7 |
| 20260510065506 | 48 | 45 | 0.0 | 1.7 | 0.00 | 0.05 | 0.00 | 95 | 1010.6 |
| 20260510065009 | 48 | 54 | 0.0 | 1.7 | 0.00 | 0.05 | 0.00 | 95 | 1010.4 |
| 20260510064546 | 48 | 54 | 0.0 | 1.7 | 0.00 | 0.05 | 0.00 | 95 | 1010.3 |
| 20260510064009 | 48 | 54 | 0.0 | 1.7 | 0.00 | 0.05 | 0.00 | 95 | 1010.3 |
| 20260510063507 | 48 | 54 | 0.0 | 0.0 | 0.00 | 0.05 | 0.00 | 95 | 1010.3 |
| 20260510063030 | 49 | 54 | 0.0 | 0.0 | 0.00 | 0.05 | 0.00 | 95 | 1010.3 |
| 20260510062511 | 49 | 54 | 0.0 | 0.0 | 0.00 | 0.05 | 0.00 | 95 | 1010.4 |
| 20260510062010 | 49 | 54 | 0.0 | 1.7 | 0.00 | 0.05 | 0.00 | 95 | 1010.4 |
| 20260510061540 | 49 | 54 | 0.0 | 1.7 | 0.00 | 0.05 | 0.00 | 95 | 1010.5 |
| 20260510061010 | 49 | 54 | 0.0 | 1.7 | 0.00 | 0.05 | 0.00 | 94 | 1010.4 |
| 20260510060506 | 49 | 54 | 0.0 | 1.7 | 0.00 | 0.05 | 0.00 | 94 | 1010.5 |
| 20260510060028 | 49 | 54 | 0.0 | 1.7 | 0.00 | 0.05 | 0.00 | 95 | 1010.4 |
| 20260510055505 | 49 | 54 | 0.0 | 1.7 | 0.00 | 0.05 | 0.00 | 95 | 1010.6 |
| 20260510055006 | 48 | 54 | 0.0 | 0.0 | 0.00 | 0.05 | 0.00 | 94 | 1010.6 |
| 20260510054520 | 49 | 54 | 0.0 | 0.0 | 0.00 | 0.05 | 0.00 | 94 | 1010.7 |
| 20260510054007 | 49 | 54 | 0.0 | 0.0 | 0.00 | 0.05 | 0.00 | 94 | 1010.7 |
| 20260510053511 | 49 | 54 | 0.0 | 0.0 | 0.00 | 0.05 | 0.00 | 94 | 1010.8 |
| 20260510053025 | 49 | 54 | 0.0 | 0.0 | 0.00 | 0.05 | 0.00 | 94 | 1010.8 |
| 20260510052508 | 49 | 54 | 0.0 | 0.0 | 0.00 | 0.05 | 0.00 | 94 | 1010.9 |
| 20260510052012 | 49 | 54 | 0.0 | 0.0 | 0.00 | 0.05 | 0.00 | 94 | 1010.9 |
| 20260510051526 | 49 | 54 | 0.0 | 1.7 | 0.00 | 0.05 | 0.00 | 94 | 1010.9 |
| 20260510051009 | 49 | 54 | 0.0 | 1.7 | 0.00 | 0.05 | 0.00 | 94 | 1010.9 |
| 20260510050509 | 49 | 54 | 0.0 | 1.7 | 0.00 | 0.05 | 0.00 | 94 | 1010.9 |
| 20260510050029 | 49 | 54 | 0.0 | 0.9 | 0.00 | 0.05 | 0.00 | 94 | 1010.9 |
| 20260510045510 | 49 | 54 | 0.0 | 0.0 | 0.00 | 0.05 | 0.00 | 94 | 1011.0 |
| 20260510045010 | 49 | 54 | 0.0 | 0.0 | 0.00 | 0.05 | 0.00 | 94 | 1011.0 |
| 20260510044523 | 49 | 54 | 0.0 | 0.0 | 0.00 | 0.05 | 0.00 | 94 | 1011.1 |
| 20260510044011 | 49 | 54 | 0.0 | 0.0 | 0.00 | 0.05 | 0.00 | 94 | 1011.0 |
| 20260510043511 | 49 | 54 | 0.0 | 0.0 | 0.00 | 0.05 | 0.00 | 94 | 1011.1 |
| 20260510043022 | 50 | 54 | 0.0 | 0.0 | 0.00 | 0.05 | 0.00 | 94 | 1011.1 |
| 20260510042506 | 50 | 54 | 0.0 | 0.0 | 0.00 | 0.05 | 0.00 | 94 | 1011.2 |
| 20260510042010 | 50 | 54 | 0.0 | 0.0 | 0.00 | 0.05 | 0.00 | 94 | 1011.2 |
| 20260510041522 | 50 | 54 | 0.0 | 0.0 | 0.00 | 0.05 | 0.00 | 94 | 1011.1 |
| 20260510041008 | 50 | 54 | 0.0 | 0.0 | 0.00 | 0.05 | 0.00 | 94 | 1011.2 |
| 20260510040507 | 50 | 54 | 0.0 | 0.0 | 0.00 | 0.05 | 0.00 | 93 | 1011.4 |
| 20260510040027 | 50 | 54 | 0.0 | 0.0 | 0.00 | 0.05 | 0.00 | 93 | 1011.2 |
| 20260510035510 | 50 | 54 | 0.0 | 0.0 | 0.00 | 0.05 | 0.05 | 93 | 1011.2 |
| 20260510035010 | 50 | 54 | 0.0 | 0.0 | 0.00 | 0.05 | 0.05 | 93 | 1011.1 |
| 20260510034528 | 50 | 54 | 0.0 | 0.0 | 0.00 | 0.05 | 0.05 | 93 | 1011.1 |
| 20260510034011 | 50 | 54 | 0.0 | 0.0 | 0.00 | 0.05 | 0.05 | 93 | 1010.9 |
| 20260510033507 | 51 | 54 | 0.0 | 0.0 | 0.00 | 0.05 | 0.05 | 93 | 1010.8 |
| 20260510033019 | 51 | 54 | 0.0 | 0.0 | 0.00 | 0.05 | 0.05 | 94 | 1010.8 |
| 20260510032507 | 51 | 54 | 0.0 | 0.0 | 0.00 | 0.05 | 0.05 | 94 | 1010.7 |
| 20260510032011 | 51 | 54 | 0.0 | 1.7 | 0.00 | 0.05 | 0.05 | 94 | 1010.8 |
| 20260510031527 | 51 | 54 | 0.0 | 1.7 | 0.00 | 0.05 | 0.05 | 94 | 1010.7 |
| 20260510031011 | 51 | 54 | 0.0 | 0.0 | 0.00 | 0.05 | 0.05 | 93 | 1010.6 |
| 20260510030507 | 51 | 54 | 0.0 | 0.0 | 0.00 | 0.05 | 0.05 | 93 | 1010.6 |
| 20260510030027 | 51 | 54 | 0.0 | 0.0 | 0.00 | 0.05 | 0.05 | 93 | 1010.6 |
| 20260510025508 | 51 | 54 | 0.0 | 1.7 | 0.00 | 0.05 | 0.05 | 93 | 1010.6 |
| 20260510025011 | 51 | 54 | 0.0 | 1.7 | 0.00 | 0.05 | 0.05 | 93 | 1010.7 |
| 20260510024532 | 51 | 54 | 0.0 | 1.7 | 0.00 | 0.05 | 0.05 | 93 | 1010.7 |
| 20260510024011 | 51 | 54 | 0.0 | 1.7 | 0.00 | 0.05 | 0.05 | 93 | 1010.7 |
| 20260510023510 | 51 | 54 | 0.0 | 0.0 | 0.00 | 0.05 | 0.05 | 93 | 1010.7 |
| 20260510023020 | 52 | 54 | 0.0 | 0.0 | 0.00 | 0.05 | 0.05 | 93 | 1010.6 |
| 20260510022508 | 52 | 54 | 0.0 | 0.0 | 0.00 | 0.05 | 0.05 | 93 | 1010.7 |
| 20260510022011 | 52 | 54 | 0.0 | 0.0 | 0.00 | 0.05 | 0.05 | 93 | 1010.6 |
| 20260510021506 | 52 | 54 | 0.0 | 0.0 | 0.00 | 0.05 | 0.05 | 92 | 1010.6 |
| 20260510021003 | 52 | 54 | 0.0 | 0.0 | 0.00 | 0.05 | 0.05 | 93 | 1010.6 |
| 20260510020503 | 52 | 54 | 0.0 | 1.7 | 0.00 | 0.05 | 0.05 | 93 | 1010.6 |
| 20260510020004 | 53 | 54 | 0.0 | 1.7 | 0.00 | 0.05 | 0.05 | 93 | 1010.4 |
| 20260510015504 | 53 | 54 | 0.0 | 1.7 | 0.00 | 0.05 | 0.05 | 93 | 1010.5 |
| 20260510015003 | 53 | 54 | 0.0 | 1.7 | 0.00 | 0.05 | 0.05 | 93 | 1010.4 |
| 20260510014515 | 53 | 54 | 0.0 | 1.7 | 0.00 | 0.05 | 0.05 | 93 | 1010.4 |
| 20260510014006 | 53 | 54 | 0.0 | 1.7 | 0.00 | 0.05 | 0.05 | 93 | 1010.4 |
| 20260510013505 | 53 | 66 | 0.0 | 1.7 | 0.00 | 0.05 | 0.05 | 92 | 1010.5 |
| 20260510013020 | 53 | 79 | 0.0 | 1.7 | 0.00 | 0.05 | 0.05 | 92 | 1010.5 |
| 20260510012508 | 54 | 80 | 0.0 | 1.7 | 0.00 | 0.05 | 0.05 | 92 | 1010.4 |
| 20260510012007 | 54 | 80 | 0.0 | 1.7 | 0.00 | 0.05 | 0.05 | 92 | 1010.4 |
| 20260510011524 | 54 | 80 | 0.0 | 1.7 | 0.00 | 0.05 | 0.05 | 92 | 1010.4 |
| 20260510011008 | 54 | 98 | 0.0 | 1.7 | 0.00 | 0.05 | 0.05 | 92 | 1010.4 |
| 20260510010509 | 54 | 106 | 0.0 | 1.7 | 0.00 | 0.05 | 0.05 | 92 | 1010.4 |
| 20260510010004 | 54 | 125 | 0.0 | 1.7 | 0.00 | 0.05 | 0.05 | 92 | 1010.3 |
| 20260510005503 | 54 | 105 | 0.0 | 1.7 | 0.00 | 0.05 | 0.05 | 92 | 1010.4 |
| 20260510005003 | 54 | 117 | 0.0 | 1.7 | 0.00 | 0.05 | 0.05 | 92 | 1010.2 |
| 20260510004507 | 54 | 83 | 0.0 | 1.7 | 0.00 | 0.05 | 0.05 | 92 | 1010.1 |
| 20260510004013 | 54 | 78 | 0.0 | 1.7 | 0.00 | 0.05 | 0.05 | 91 | 1010.2 |
| 20260510003505 | 54 | 87 | 0.0 | 1.7 | 0.00 | 0.05 | 0.05 | 91 | 1010.1 |
| 20260510003013 | 54 | 87 | 0.0 | 0.9 | 0.00 | 0.05 | 0.05 | 91 | 1010.2 |
| 20260510002507 | 55 | 87 | 0.0 | 0.0 | 0.00 | 0.05 | 0.05 | 91 | 1010.2 |
| 20260510002007 | 55 | 87 | 0.0 | 1.7 | 0.00 | 0.05 | 0.05 | 91 | 1010.2 |
| 20260510001518 | 55 | 87 | 0.0 | 1.7 | 0.00 | 0.05 | 0.05 | 91 | 1010.2 |
| 20260510001008 | 55 | 91 | 0.0 | 1.7 | 0.00 | 0.05 | 0.05 | 90 | 1010.2 |
| 20260510000507 | 55 | 91 | 0.0 | 1.7 | 0.00 | 0.05 | 0.05 | 90 | 1010.3 |
| 20260510000025 | 55 | 91 | 0.0 | 1.7 | 0.00 | 0.05 | 0.05 | 89 | 1010.3 |
| 20260509235507 | 56 | 91 | 0.0 | 0.0 | 0.00 | 0.05 | 0.05 | 89 | 1010.2 |
| 20260509235004 | 56 | 91 | 0.0 | 0.0 | 0.00 | 0.05 | 0.05 | 89 | 1010.2 |
| 20260509234517 | 56 | 91 | 0.0 | 0.0 | 0.00 | 0.05 | 0.05 | 89 | 1010.2 |
| 20260509234004 | 56 | 91 | 0.0 | 0.0 | 0.00 | 0.05 | 0.05 | 89 | 1010.2 |
| 20260509233503 | 56 | 91 | 0.0 | 0.0 | 0.00 | 0.05 | 0.05 | 88 | 1010.2 |
| 20260509233016 | 57 | 91 | 0.0 | 0.9 | 0.00 | 0.05 | 0.05 | 88 | 1010.1 |
| 20260509232506 | 57 | 91 | 0.0 | 1.7 | 0.00 | 0.05 | 0.05 | 88 | 1010.1 |
| 20260509232007 | 57 | 91 | 0.0 | 1.7 | 0.00 | 0.05 | 0.05 | 88 | 1010.0 |
| 20260509231516 | 57 | 91 | 0.0 | 1.7 | 0.00 | 0.05 | 0.05 | 88 | 1010.0 |
| 20260509231007 | 57 | 28 | 0.0 | 1.7 | 0.00 | 0.05 | 0.05 | 88 | 1010.0 |
| 20260509230510 | 57 | 77 | 0.0 | 1.7 | 0.00 | 0.05 | 0.05 | 88 | 1010.0 |
| 20260509230022 | 57 | 94 | 0.0 | 1.7 | 0.00 | 0.05 | 0.05 | 89 | 1009.9 |